Location: Kernascl�den
(48.0062°N, 3.3198°W)
Time: 22:02:44
(UTC+00:00)

X-37B - Pass Details

Date: 21 January 2021
Orbit: 383 x 391 km, 45.0° (Epoch: 27 February)

Event Time Altitude Azimuth Distance (km) Brightness Sun altitude
Rises 19:41:23 0° 253° (WSW) 2,274 5.6 -27.2°
Reaches altitude 10° 19:43:30 10° 248° (WSW) 1,420 4.2 -27.6°
Enters shadow 19:44:15 16° 243° (WSW) 1,132 3.6 -27.7°
